DELTA 1 DEB, 40762

Orbit data source: Space-Track

DELTA 1 DEB, 40762 is space debris in LEO originally from a launch on Thu, 29 Jul 1976 UTC launched from the Air Force Western Test Range (AFWTR). Debris objects in space refer to the collection of defunct objects orbiting the Earth. Examples of debris include non-operational satellites, rocket bodies, and fragments generated from explosions, collisions, or faulty payload assembly.

Loading next visibility...
Identifier
40762, 1976-077GF
Orbit
LEO
Country
Flag of USUS
Related business
Manufacturer
Unknown
Mission
Spacecraft
Bus & Motor
Unknown
Mass
Unknown
Launch date (UTC)
1976-07-29 (50 years ago)
Launch vehicle
Unknown
Launch site
Air Force Western Test Range (AFWTR)
Object type
Payload
Rocket body
Debris
Shape & HBR
Unknown shape, 1.1 m
Radar Cross Section
Medium (>0.1 m² and <1 m²)

Expand to show TLE details & history
Last TLE update: 4 days ago

TLE from 4 days ago
0 DELTA 1 DEB
1 40762U 76077GF  26252.22441810  .00000096  00000-0  17905-2 0  9994
2 40762 102.3743 359.4272 0327522 257.3445  99.0784 11.83431710549985
Epoch: 2026-09-09T05:23Z
TLE epoch observation values (Epoch: 2026-09-09T05:23:09.723Z)
Latitude
-0.00003°
Longitude
-69.64285°
Altitude
1,808.842 km
Speed
6.957 km/s
True Right ascension
23h 57m 42s
True Declination
0° 00' 00"
Sunlit
Object was in full shadow at epoch
Visualization orbit readout
Latitude
Unknown
Longitude
Unknown
Altitude
Unknown
Speed
Unknown
Apparent Right ascension
Unknown
Apparent Declination
Unknown
Sunlit
N/A
Visualization observer readout
Local Sidereal Time
18:35:08
Azimuth
Unknown
Elevation
Unknown
Doppler factor
Unknown
Orbital elements
Apogee altitude
2,019.903 km
Perigee altitude
1,487.24 km
Semi-major axis
8,131.709 km
Eccentricity
0.03275
Inclination
102.3743°
RAAN
359.4272°
Arg. of periapsis
257.3445°
True anomaly
102.75819°
Mean anomaly
99.0784°
Eccentric anomaly
100.92098°
Mean motion
2.95986 °/min
Orbital period
121.63 mins
BSTAR
0.0017905
Loading maneuver chart data...
Computing Atmospheric mass density...
Loading historical data...
Loading historical data...
Loading historical data...
Loading historical data...
Loading historical data...
Loading historical data...
Loading historical data...

Documentation

Showing up to 5 results
|